Voltar ao catálogo

STARLINK-31200

AtivoComunicaçõesVLEO
NORAD 58862·PAYLOAD·🇺🇸 United States

Lançado Jan 29, 2024 de Cape Canaveral Space Force Station

Loading…

Próximas Passagens (próximas 24 horas)

TLE

AtualizadoSource: CelesTrak SupGP

Época: Sep 14, 2026, 22:24 UTC

1 58862C 24019K   26257.93381944  .00034547  00000+0  12512-2 0  2570
2 58862  43.0016 260.0858 0001417 264.1011 173.4733 15.27562623    10

Acompanhe STARLINK-31200 em tempo real com AllMySat

Download on the App Store